CHINASAT 16 (SJ-13)

Last updated on Tue Sep 22 2026 00:03:14 GMT+0000 (Coordinated Universal Time)

1 42662U 17018A 26264.65355981 -.00000356 00000+0 00000+0 0 9992 2 42662 0.0769 90.6013 0007137 138.8423 116.9430 1.00269579 34718
UTC large
Height (km)
Speed (km/s)
/
Latitude / Longitude
Inclination (degrees)
Orbital Period (minutes)
Azimuth
Elevation
Range (km)
Doppler Factor

Next 0 passes for location: London (51.5072 / 0.1276)

No passes found over London.
CHINASAT 16 (SJ-13)